Time,TemperatureF,DewpointF,PressureIn,WindDirection,WindDirectionDegrees,WindSpeedMPH,WindSpeedGustMPH,Humidity,HourlyPrecipIn,Conditions,Clouds,dailyrainin,SoftwareType,DateUTC
2013-04-17 00:00:00,57.6,56.2,30.00,NNW,338,0.0,0.0,95,0.01,RA,,0.00,WeatherDisplay:10.37,2013-04-17 04:00:00,
2013-04-17 00:01:00,57.6,56.2,30.00,WNW,292,0.0,0.0,95,0.01,RA,,0.00,WeatherDisplay:10.37,2013-04-17 04:01:00,
2013-04-17 00:04:00,57.6,56.2,30.00,NW,315,0.0,0.0,95,0.01,RA,,0.00,WeatherDisplay:10.37,2013-04-17 04:04:00,
2013-04-17 00:05:00,57.6,56.2,30.00,West,270,0.0,0.0,95,0.01,RA,,0.00,WeatherDisplay:10.37,2013-04-17 04:05:00,
2013-04-17 00:10:00,57.6,56.2,30.00,West,270,0.0,0.0,95,0.01,OVC,,0.00,WeatherDisplay:10.37,2013-04-17 04:10:00,
2013-04-17 00:15:00,57.6,56.2,30.00,West,270,2.3,2.3,95,0.01,OVC,,0.00,WeatherDisplay:10.37,2013-04-17 04:15:00,
2013-04-17 00:20:00,57.6,56.2,30.00,West,270,1.1,0.0,95,0.01,OVC,,0.00,WeatherDisplay:10.37,2013-04-17 04:20:00,
2013-04-17 00:25:00,57.6,56.2,29.99,West,270,1.7,1.7,95,0.01,OVC,,0.00,WeatherDisplay:10.37,2013-04-17 04:25:00,
2013-04-17 00:30:00,57.6,56.2,29.99,NNW,338,2.7,2.7,95,0.01,OVC,,0.00,WeatherDisplay:10.37,2013-04-17 04:30:00,
2013-04-17 00:35:00,57.6,56.2,29.99,NNW,338,2.7,2.7,95,0.00,OVC,,0.00,WeatherDisplay:10.37,2013-04-17 04:35:00,
2013-04-17 00:40:00,57.6,56.2,29.99,NNE,22,3.7,3.7,95,0.00,OVC,,0.00,WeatherDisplay:10.37,2013-04-17 04:40:00,
2013-04-17 00:45:00,57.6,56.2,29.99,NW,315,3.5,3.5,95,0.00,OVC,,0.00,WeatherDisplay:10.37,2013-04-17 04:45:00,
2013-04-17 00:50:00,57.6,56.2,29.99,NW,315,2.7,2.7,95,0.00,OVC,,0.00,WeatherDisplay:10.37,2013-04-17 04:50:00,
2013-04-17 00:55:00,57.6,56.2,29.99,ESE,112,2.3,2.3,95,0.00,OVC,,0.00,WeatherDisplay:10.37,2013-04-17 04:55:00,
2013-04-17 01:00:00,57.6,56.2,29.99,West,270,3.5,3.5,95,0.00,OVC,,0.00,WeatherDisplay:10.37,2013-04-17 05:00:00,
2013-04-17 01:05:00,57.6,56.2,29.98,NNW,338,3.5,3.5,95,0.00,OVC,,0.00,WeatherDisplay:10.37,2013-04-17 05:05:00,
2013-04-17 01:10:00,57.4,56.0,29.98,WNW,292,3.5,3.5,95,0.00,OVC,,0.00,WeatherDisplay:10.37,2013-04-17 05:10:00,
2013-04-17 01:15:00,57.2,55.8,29.99,East,90,3.2,3.2,95,0.00,OVC,,0.00,WeatherDisplay:10.37,2013-04-17 05:15:00,
2013-04-17 01:20:00,57.2,55.8,29.99,ENE,68,3.5,3.5,95,0.00,OVC,,0.00,WeatherDisplay:10.37,2013-04-17 05:20:00,
2013-04-17 01:25:00,57.2,55.8,29.98,East,90,3.5,3.5,95,0.00,OVC,,0.00,WeatherDisplay:10.37,2013-04-17 05:25:00,
2013-04-17 01:30:00,57.2,55.8,29.98,ESE,112,3.5,3.5,95,0.00,OVC,,0.00,WeatherDisplay:10.37,2013-04-17 05:30:00,
2013-04-17 01:35:00,57.2,55.8,29.98,West,270,1.1,0.0,95,0.00,BKN,,0.00,WeatherDisplay:10.37,2013-04-17 05:35:00,
2013-04-17 01:40:00,57.0,55.6,29.98,West,270,0.0,0.0,95,0.00,BKN,,0.00,WeatherDisplay:10.37,2013-04-17 05:40:00,
2013-04-17 01:45:00,57.0,55.6,29.98,SSE,158,0.0,0.0,95,0.00,BKN,,0.00,WeatherDisplay:10.37,2013-04-17 05:45:00,
2013-04-17 01:50:00,56.7,55.3,29.98,South,180,0.0,0.0,95,0.00,BKN,,0.00,WeatherDisplay:10.37,2013-04-17 05:50:00,
2013-04-17 01:55:00,56.7,55.3,29.98,ESE,112,3.5,3.5,95,0.00,BKN,,0.00,WeatherDisplay:10.37,2013-04-17 05:55:00,
2013-04-17 02:00:00,56.7,55.3,29.98,ESE,112,3.5,3.5,95,0.00,BKN,,0.00,WeatherDisplay:10.37,2013-04-17 06:00:00,
2013-04-17 02:05:00,56.7,55.3,29.98,ESE,112,2.3,2.3,95,0.00,CLR,,0.00,WeatherDisplay:10.37,2013-04-17 06:05:00,
2013-04-17 02:10:00,56.7,55.3,29.98,ESE,112,3.5,3.5,95,0.00,CLR,,0.00,WeatherDisplay:10.37,2013-04-17 06:10:00,
2013-04-17 02:15:00,56.7,55.3,29.99,West,270,2.2,2.2,95,0.00,CLR,,0.00,WeatherDisplay:10.37,2013-04-17 06:15:00,
2013-04-17 02:20:00,56.5,55.1,29.99,NNE,22,2.7,2.7,95,0.00,CLR,,0.00,WeatherDisplay:10.37,2013-04-17 06:20:00,
2013-04-17 02:25:00,56.3,54.9,29.99,West,270,2.3,2.5,95,0.00,CLR,,0.00,WeatherDisplay:10.37,2013-04-17 06:25:00,
2013-04-17 02:30:00,56.3,54.9,29.99,West,270,1.7,1.7,95,0.00,CLR,,0.00,WeatherDisplay:10.37,2013-04-17 06:30:00,
2013-04-17 02:35:00,56.3,54.9,29.99,WSW,248,2.2,2.2,95,0.00,OVC,,0.00,WeatherDisplay:10.37,2013-04-17 06:35:00,
2013-04-17 02:40:00,56.3,54.9,29.99,WNW,292,0.0,0.0,95,0.00,OVC,,0.00,WeatherDisplay:10.37,2013-04-17 06:40:00,
2013-04-17 02:45:00,56.3,54.9,29.99,NW,315,0.0,0.0,95,0.00,OVC,,0.00,WeatherDisplay:10.37,2013-04-17 06:45:00,
2013-04-17 02:50:00,56.1,54.7,29.98,ESE,112,0.0,0.0,95,0.00,OVC,,0.00,WeatherDisplay:10.37,2013-04-17 06:50:00,
2013-04-17 02:55:00,56.1,54.7,29.98,NNW,338,0.0,0.0,95,0.00,OVC,,0.00,WeatherDisplay:10.37,2013-04-17 06:55:00,
2013-04-17 03:00:00,56.1,54.7,29.98,West,270,3.2,3.2,95,0.00,OVC,,0.00,WeatherDisplay:10.37,2013-04-17 07:00:00,
2013-04-17 03:05:00,55.9,54.5,29.98,ESE,112,4.6,4.6,95,0.00,CLR,,0.00,WeatherDisplay:10.37,2013-04-17 07:05:00,
2013-04-17 03:10:00,55.9,54.5,29.98,NNE,22,3.5,3.5,95,0.00,CLR,,0.00,WeatherDisplay:10.37,2013-04-17 07:10:00,
2013-04-17 03:15:00,55.9,54.5,29.99,ESE,112,4.6,4.6,95,0.00,CLR,,0.00,WeatherDisplay:10.37,2013-04-17 07:15:00,
2013-04-17 03:20:00,55.9,54.5,29.99,NW,315,4.6,4.6,95,0.00,CLR,,0.00,WeatherDisplay:10.37,2013-04-17 07:20:00,
2013-04-17 03:25:00,55.9,54.5,29.99,ESE,112,3.7,3.7,95,0.00,CLR,,0.00,WeatherDisplay:10.37,2013-04-17 07:25:00,
2013-04-17 03:30:00,55.9,54.5,29.99,NNE,22,5.8,5.8,95,0.00,CLR,,0.00,WeatherDisplay:10.37,2013-04-17 07:30:00,
2013-04-17 03:35:00,55.9,54.5,29.99,North,360,8.1,8.1,95,0.00,OVC,,0.00,WeatherDisplay:10.37,2013-04-17 07:35:00,
2013-04-17 03:40:00,55.9,54.5,30.00,NNW,338,3.7,3.7,95,0.00,OVC,,0.00,WeatherDisplay:10.37,2013-04-17 07:40:00,
2013-04-17 03:45:00,55.4,54.0,30.00,WNW,292,6.9,6.9,95,0.00,OVC,,0.00,WeatherDisplay:10.37,2013-04-17 07:45:00,
2013-04-17 03:50:00,55.2,53.8,30.00,NW,315,5.8,5.8,95,0.00,OVC,,0.00,WeatherDisplay:10.37,2013-04-17 07:50:00,
2013-04-17 03:55:00,55.0,53.6,30.00,SW,225,5.8,5.8,95,0.00,OVC,,0.00,WeatherDisplay:10.37,2013-04-17 07:55:00,
2013-04-17 04:00:00,54.9,53.5,30.00,NE,45,4.6,4.6,95,0.00,OVC,,0.00,WeatherDisplay:10.37,2013-04-17 08:00:00,
2013-04-17 04:05:00,54.9,53.5,30.00,WNW,292,3.5,3.6,95,0.00,OVC,,0.00,WeatherDisplay:10.37,2013-04-17 08:05:00,
2013-04-17 04:10:00,54.7,53.3,30.00,NE,45,5.3,5.3,95,0.00,OVC,,0.00,WeatherDisplay:10.37,2013-04-17 08:10:00,
2013-04-17 04:15:00,54.5,53.1,30.01,ESE,112,5.8,5.8,95,0.00,OVC,,0.00,WeatherDisplay:10.37,2013-04-17 08:15:00,
2013-04-17 04:20:00,54.5,53.1,30.01,East,90,3.7,3.7,95,0.00,OVC,,0.00,WeatherDisplay:10.37,2013-04-17 08:20:00,
2013-04-17 04:25:00,54.5,53.1,30.01,ESE,112,4.6,4.6,95,0.00,OVC,,0.00,WeatherDisplay:10.37,2013-04-17 08:25:00,
2013-04-17 04:30:00,54.3,53.2,30.01,NNE,22,5.8,5.9,96,0.00,OVC,,0.00,WeatherDisplay:10.37,2013-04-17 08:30:00,
2013-04-17 04:35:00,54.3,53.2,30.01,NNW,338,5.8,5.8,96,0.00,OVC,,0.00,WeatherDisplay:10.37,2013-04-17 08:35:00,
2013-04-17 04:40:00,54.1,53.0,30.01,East,90,6.9,6.9,96,0.00,OVC,,0.00,WeatherDisplay:10.37,2013-04-17 08:40:00,
2013-04-17 04:45:00,54.1,53.0,30.01,ESE,112,4.7,4.7,96,0.00,OVC,,0.00,WeatherDisplay:10.37,2013-04-17 08:45:00,
2013-04-17 04:50:00,54.1,53.0,30.01,NNE,22,4.7,4.7,96,0.00,OVC,,0.00,WeatherDisplay:10.37,2013-04-17 08:50:00,
2013-04-17 04:55:00,54.0,52.9,30.01,ESE,112,5.8,5.8,96,0.00,OVC,,0.00,WeatherDisplay:10.37,2013-04-17 08:55:00,
2013-04-17 05:00:00,54.0,52.9,30.01,NW,315,5.8,5.8,96,0.00,OVC,,0.00,WeatherDisplay:10.37,2013-04-17 09:00:00,
2013-04-17 05:05:00,54.0,52.9,30.01,WSW,248,4.6,4.6,96,0.00,OVC,,0.00,WeatherDisplay:10.37,2013-04-17 09:05:00,
2013-04-17 05:10:00,54.0,52.9,30.01,WNW,292,3.5,3.5,96,0.00,OVC,,0.00,WeatherDisplay:10.37,2013-04-17 09:10:00,
2013-04-17 05:15:00,53.8,52.7,30.02,East,90,5.8,5.8,96,0.00,OVC,,0.00,WeatherDisplay:10.37,2013-04-17 09:15:00,
2013-04-17 05:20:00,53.8,52.7,30.02,NNE,22,3.5,3.5,96,0.00,OVC,,0.00,WeatherDisplay:10.37,2013-04-17 09:20:00,
2013-04-17 05:25:00,53.8,52.7,30.02,WNW,292,4.6,4.6,96,0.00,OVC,,0.00,WeatherDisplay:10.37,2013-04-17 09:25:00,
2013-04-17 05:30:00,53.6,52.5,30.02,West,270,2.3,2.3,96,0.00,OVC,,0.00,WeatherDisplay:10.37,2013-04-17 09:30:00,
2013-04-17 05:36:00,53.6,52.5,30.02,West,270,4.6,4.6,96,0.00,OVC,,0.00,WeatherDisplay:10.37,2013-04-17 09:36:00,
2013-04-17 05:41:00,53.6,52.5,30.02,NW,315,4.6,4.6,96,0.00,OVC,,0.00,WeatherDisplay:10.37,2013-04-17 09:41:00,
2013-04-17 05:46:00,53.4,52.3,30.02,NNE,22,4.6,4.6,96,0.00,OVC,,0.00,WeatherDisplay:10.37,2013-04-17 09:46:00,
2013-04-17 05:51:00,53.4,52.3,30.02,NE,45,4.6,4.6,96,0.00,OVC,,0.00,WeatherDisplay:10.37,2013-04-17 09:51:00,
2013-04-17 05:56:00,53.2,52.1,30.02,NE,45,3.5,3.5,96,0.00,OVC,,0.00,WeatherDisplay:10.37,2013-04-17 09:56:00,
2013-04-17 06:01:00,53.1,52.0,30.03,ENE,68,4.6,4.6,96,0.00,OVC,,0.00,WeatherDisplay:10.37,2013-04-17 10:01:00,
2013-04-17 06:06:00,52.9,51.8,30.03,NNE,22,5.3,5.3,96,0.00,OVC,,0.00,WeatherDisplay:10.37,2013-04-17 10:06:00,
2013-04-17 06:11:00,52.7,51.6,30.03,ENE,68,5.8,5.8,96,0.00,OVC,,0.00,WeatherDisplay:10.37,2013-04-17 10:11:00,
2013-04-17 06:16:00,52.7,51.6,30.02,ESE,112,5.8,5.8,96,0.00,OVC,,0.00,WeatherDisplay:10.37,2013-04-17 10:16:00,
2013-04-17 06:21:00,52.7,51.6,30.02,NE,45,6.3,6.3,96,0.00,OVC,,0.00,WeatherDisplay:10.37,2013-04-17 10:21:00,
2013-04-17 06:26:00,52.5,51.4,30.02,ESE,112,6.9,6.9,96,0.00,OVC,,0.00,WeatherDisplay:10.37,2013-04-17 10:26:00,
2013-04-17 06:31:00,52.5,51.4,30.02,East,90,5.8,5.8,96,0.00,OVC,,0.00,WeatherDisplay:10.37,2013-04-17 10:31:00,
2013-04-17 06:36:00,52.5,51.4,30.02,ENE,68,5.8,5.8,96,0.00,OVC,,0.00,WeatherDisplay:10.37,2013-04-17 10:36:00,
2013-04-17 06:41:00,52.3,51.2,30.03,ESE,112,9.2,9.2,96,0.00,OVC,,0.00,WeatherDisplay:10.37,2013-04-17 10:41:00,
2013-04-17 06:46:00,52.2,51.1,30.03,ESE,112,6.9,6.9,96,0.00,OVC,,0.00,WeatherDisplay:10.37,2013-04-17 10:46:00,
2013-04-17 06:51:00,52.2,51.1,30.03,ESE,112,6.9,6.9,96,0.00,OVC,,0.00,WeatherDisplay:10.37,2013-04-17 10:51:00,
2013-04-17 06:56:00,52.0,50.9,30.03,ESE,112,7.3,7.3,96,0.00,OVC,,0.00,WeatherDisplay:10.37,2013-04-17 10:56:00,
2013-04-17 07:01:00,52.0,50.9,30.03,East,90,6.8,6.8,96,0.00,OVC,,0.00,WeatherDisplay:10.37,2013-04-17 11:01:00,
2013-04-17 07:06:00,52.0,50.9,30.03,East,90,6.9,6.9,96,0.00,OVC,,0.00,WeatherDisplay:10.37,2013-04-17 11:06:00,
2013-04-17 07:11:00,52.0,50.9,30.03,NE,45,5.8,5.8,96,0.00,OVC,,0.00,WeatherDisplay:10.37,2013-04-17 11:11:00,
2013-04-17 07:16:00,52.0,50.9,30.04,East,90,3.2,3.5,96,0.00,OVC,,0.00,WeatherDisplay:10.37,2013-04-17 11:16:00,
2013-04-17 07:21:00,52.0,50.9,30.04,East,90,5.8,5.8,96,0.00,OVC,,0.00,WeatherDisplay:10.37,2013-04-17 11:21:00,
2013-04-17 07:26:00,51.8,50.7,30.04,ENE,68,5.8,5.8,96,0.00,OVC,,0.00,WeatherDisplay:10.37,2013-04-17 11:26:00,
2013-04-17 07:32:00,51.6,50.5,30.04,East,90,5.8,5.8,96,0.00,OVC,,0.00,WeatherDisplay:10.37,2013-04-17 11:32:00,
2013-04-17 07:37:00,51.8,50.7,30.05,ENE,68,4.6,4.6,96,0.00,OVC,,0.00,WeatherDisplay:10.37,2013-04-17 11:37:00,
2013-04-17 07:42:00,51.6,50.5,30.05,East,90,3.5,3.5,96,0.00,OVC,,0.00,WeatherDisplay:10.37,2013-04-17 11:42:00,
2013-04-17 07:47:00,51.8,50.7,30.05,ESE,112,2.3,2.3,96,0.00,OVC,,0.00,WeatherDisplay:10.37,2013-04-17 11:47:00,
2013-04-17 07:52:00,51.6,50.5,30.06,SE,135,3.7,3.7,96,0.00,OVC,,0.00,WeatherDisplay:10.37,2013-04-17 11:52:00,
2013-04-17 07:57:00,51.6,50.5,30.06,East,90,5.8,5.8,96,0.00,OVC,,0.00,WeatherDisplay:10.37,2013-04-17 11:57:00,
2013-04-17 08:02:00,51.4,50.3,30.06,NE,45,5.8,5.8,96,0.00,OVC,,0.00,WeatherDisplay:10.37,2013-04-17 12:02:00,
2013-04-17 08:07:00,51.4,50.3,30.06,East,90,3.7,3.7,96,0.00,OVC,,0.00,WeatherDisplay:10.37,2013-04-17 12:07:00,
2013-04-17 08:12:00,51.1,50.0,30.06,East,90,5.8,5.8,96,0.00,OVC,,0.00,WeatherDisplay:10.37,2013-04-17 12:12:00,
2013-04-17 08:17:00,51.1,50.0,30.06,SE,135,4.7,4.7,96,0.00,OVC,,0.00,WeatherDisplay:10.37,2013-04-17 12:17:00,
2013-04-17 08:22:00,51.3,50.2,30.06,ESE,112,5.8,5.8,96,0.00,OVC,,0.00,WeatherDisplay:10.37,2013-04-17 12:22:00,
2013-04-17 08:27:00,50.7,49.6,30.06,East,90,8.1,8.1,96,0.00,OVC,,0.00,WeatherDisplay:10.37,2013-04-17 12:27:00,
2013-04-17 08:32:00,51.1,50.0,30.06,East,90,4.2,4.2,96,0.00,OVC,,0.00,WeatherDisplay:10.37,2013-04-17 12:32:00,
2013-04-17 08:37:00,50.9,49.8,30.06,ESE,112,6.3,6.3,96,0.00,OVC,,0.00,WeatherDisplay:10.37,2013-04-17 12:37:00,
2013-04-17 08:42:00,50.2,49.1,30.06,East,90,9.2,9.2,96,0.00,OVC,,0.00,WeatherDisplay:10.37,2013-04-17 12:42:00,
2013-04-17 08:47:00,50.0,48.9,30.06,East,90,8.1,8.1,96,0.00,OVC,,0.00,WeatherDisplay:10.37,2013-04-17 12:47:00,
2013-04-17 08:52:00,50.0,48.9,30.07,ESE,112,6.9,6.9,96,0.00,OVC,,0.00,WeatherDisplay:10.37,2013-04-17 12:52:00,
2013-04-17 08:57:00,50.0,48.9,30.07,East,90,7.8,7.8,96,0.00,OVC,,0.00,WeatherDisplay:10.37,2013-04-17 12:57:00,
2013-04-17 09:02:00,49.8,48.7,30.07,ESE,112,5.8,5.8,96,0.00,OVC,,0.00,WeatherDisplay:10.37,2013-04-17 13:02:00,
2013-04-17 09:07:00,50.0,48.9,30.07,East,90,5.8,5.8,96,0.00,OVC,,0.00,WeatherDisplay:10.37,2013-04-17 13:07:00,
2013-04-17 09:12:00,50.0,48.9,30.07,East,90,8.3,8.3,96,0.00,OVC,,0.00,WeatherDisplay:10.37,2013-04-17 13:12:00,
2013-04-17 09:17:00,49.8,48.7,30.07,East,90,5.8,5.8,96,0.00,OVC,,0.00,WeatherDisplay:10.37,2013-04-17 13:17:00,
2013-04-17 09:22:00,50.0,48.9,30.07,NNE,22,8.3,8.3,96,0.00,OVC,,0.00,WeatherDisplay:10.37,2013-04-17 13:22:00,
2013-04-17 09:27:00,50.0,48.9,30.08,ESE,112,8.8,8.8,96,0.00,OVC,,0.00,WeatherDisplay:10.37,2013-04-17 13:27:00,
2013-04-17 09:32:00,50.4,49.3,30.08,ESE,112,4.7,4.7,96,0.00,OVC,,0.00,WeatherDisplay:10.37,2013-04-17 13:32:00,
2013-04-17 09:37:00,50.4,49.3,30.08,ESE,112,6.9,6.9,96,0.00,OVC,,0.00,WeatherDisplay:10.37,2013-04-17 13:37:00,
2013-04-17 09:42:00,50.7,49.0,30.07,ESE,112,6.3,6.3,94,0.00,OVC,,0.00,WeatherDisplay:10.37,2013-04-17 13:42:00,
2013-04-17 09:47:00,50.7,47.6,30.07,ESE,112,5.8,5.8,89,0.00,OVC,,0.00,WeatherDisplay:10.37,2013-04-17 13:47:00,
2013-04-17 09:52:00,51.3,47.9,30.08,East,90,5.8,5.8,88,0.00,OVC,,0.00,WeatherDisplay:10.37,2013-04-17 13:52:00,
2013-04-17 09:57:00,51.4,47.7,30.08,ESE,112,6.9,6.9,87,0.00,OVC,,0.00,WeatherDisplay:10.37,2013-04-17 13:57:00,
2013-04-17 10:02:00,51.8,48.1,30.07,ESE,112,9.2,9.2,87,0.00,OVC,,0.00,WeatherDisplay:10.37,2013-04-17 14:02:00,
2013-04-17 10:07:00,51.8,48.4,30.07,ESE,112,4.6,4.6,88,0.00,OVC,,0.00,WeatherDisplay:10.37,2013-04-17 14:07:00,
2013-04-17 10:12:00,52.2,48.4,30.07,ESE,112,5.8,5.8,87,0.00,OVC,,0.00,WeatherDisplay:10.37,2013-04-17 14:12:00,
2013-04-17 10:17:00,52.2,48.4,30.07,ESE,112,4.6,4.6,87,0.00,OVC,,0.00,WeatherDisplay:10.37,2013-04-17 14:17:00,
2013-04-17 10:22:00,52.3,48.5,30.07,ESE,112,5.8,5.8,87,0.00,OVC,,0.00,WeatherDisplay:10.37,2013-04-17 14:22:00,
2013-04-17 10:27:00,52.7,48.9,30.07,East,90,4.6,4.6,87,0.00,OVC,,0.00,WeatherDisplay:10.37,2013-04-17 14:27:00,
2013-04-17 10:32:00,52.7,48.6,30.07,East,90,5.8,5.8,86,0.00,OVC,,0.00,WeatherDisplay:10.37,2013-04-17 14:32:00,
2013-04-17 10:37:00,53.1,49.3,30.07,ESE,112,5.8,5.8,87,0.00,OVC,,0.00,WeatherDisplay:10.37,2013-04-17 14:37:00,
2013-04-17 10:42:00,53.2,48.8,30.08,NNE,22,2.3,2.5,85,0.00,OVC,,0.00,WeatherDisplay:10.37,2013-04-17 14:42:00,
2013-04-17 10:47:00,53.8,49.4,30.08,East,90,3.5,3.5,85,0.00,OVC,,0.00,WeatherDisplay:10.37,2013-04-17 14:47:00,
2013-04-17 10:52:00,54.0,49.6,30.08,ESE,112,5.8,5.8,85,0.00,OVC,,0.00,WeatherDisplay:10.37,2013-04-17 14:52:00,
2013-04-17 10:57:00,53.8,49.4,30.08,ESE,112,5.8,5.8,85,0.00,OVC,,0.00,WeatherDisplay:10.37,2013-04-17 14:57:00,
2013-04-17 11:02:00,54.1,49.7,30.08,SSE,158,5.8,5.8,85,0.00,OVC,,0.00,WeatherDisplay:10.37,2013-04-17 15:02:00,
2013-04-17 11:07:00,54.1,49.1,30.08,East,90,4.6,4.6,83,0.00,OVC,,0.00,WeatherDisplay:10.37,2013-04-17 15:07:00,
2013-04-17 11:12:00,54.5,49.8,30.08,ESE,112,6.3,6.3,84,0.00,OVC,,0.00,WeatherDisplay:10.37,2013-04-17 15:12:00,
2013-04-17 11:17:00,54.3,48.9,30.08,East,90,5.8,5.8,82,0.00,OVC,,0.00,WeatherDisplay:10.37,2013-04-17 15:17:00,
2013-04-17 11:22:00,54.3,49.2,30.08,SE,135,5.8,5.8,83,0.00,OVC,,0.00,WeatherDisplay:10.37,2013-04-17 15:22:00,
2013-04-17 11:27:00,54.7,49.6,30.08,ESE,112,5.8,5.8,83,0.00,OVC,,0.00,WeatherDisplay:10.37,2013-04-17 15:27:00,
2013-04-17 11:32:00,54.7,49.3,30.08,ESE,112,6.8,6.8,82,0.00,OVC,,0.00,WeatherDisplay:10.37,2013-04-17 15:32:00,
2013-04-17 11:37:00,55.0,49.9,30.08,East,90,3.7,3.7,83,0.00,OVC,,0.00,WeatherDisplay:10.37,2013-04-17 15:37:00,
2013-04-17 11:42:00,55.4,49.7,30.08,SE,135,5.8,5.8,81,0.00,OVC,,0.00,WeatherDisplay:10.37,2013-04-17 15:42:00,
2013-04-17 11:47:00,56.1,50.7,30.08,ESE,112,5.8,5.8,82,0.00,OVC,,0.00,WeatherDisplay:10.37,2013-04-17 15:47:00,
2013-04-17 11:52:00,56.1,49.7,30.07,ESE,112,5.8,5.8,79,0.00,OVC,,0.00,WeatherDisplay:10.37,2013-04-17 15:52:00,
2013-04-17 11:57:00,56.3,49.5,30.07,East,90,4.7,4.7,78,0.00,OVC,,0.00,WeatherDisplay:10.37,2013-04-17 15:57:00,
2013-04-17 12:02:00,57.0,50.2,30.08,SE,135,5.8,5.8,78,0.00,OVC,,0.00,WeatherDisplay:10.37,2013-04-17 16:02:00,
2013-04-17 12:07:00,56.8,49.7,30.08,ESE,112,5.8,5.8,77,0.00,OVC,,0.00,WeatherDisplay:10.37,2013-04-17 16:07:00,
2013-04-17 12:12:00,57.0,49.5,30.08,NE,45,3.5,3.5,76,0.00,OVC,,0.00,WeatherDisplay:10.37,2013-04-17 16:12:00,
2013-04-17 12:17:00,57.6,49.7,30.08,East,90,3.5,3.5,75,0.00,OVC,,0.00,WeatherDisplay:10.37,2013-04-17 16:17:00,
2013-04-17 12:22:00,58.3,49.7,30.08,ESE,112,4.6,4.6,73,0.00,OVC,,0.00,WeatherDisplay:10.37,2013-04-17 16:22:00,
2013-04-17 12:27:00,58.6,50.0,30.08,East,90,2.3,2.3,73,0.00,OVC,,0.00,WeatherDisplay:10.37,2013-04-17 16:27:00,
2013-04-17 12:32:00,62.4,51.3,30.08,SE,135,4.6,4.6,67,0.00,OVC,,0.00,WeatherDisplay:10.37,2013-04-17 16:32:00,
2013-04-17 12:37:00,59.7,50.7,30.06,SSE,158,8.1,8.1,72,0.00,OVC,,0.00,WeatherDisplay:10.37,2013-04-17 16:37:00,
2013-04-17 12:42:00,60.4,51.0,30.06,ESE,112,6.9,6.9,71,0.00,OVC,,0.00,WeatherDisplay:10.37,2013-04-17 16:42:00,
2013-04-17 12:47:00,62.8,51.3,30.06,West,270,3.5,3.5,66,0.00,OVC,,0.00,WeatherDisplay:10.37,2013-04-17 16:47:00,
2013-04-17 12:52:00,60.4,50.6,30.06,ENE,68,5.8,5.8,70,0.00,OVC,,0.00,WeatherDisplay:10.37,2013-04-17 16:52:00,
2013-04-17 12:57:00,61.2,50.6,30.06,SSE,158,4.7,4.7,68,0.00,OVC,,0.00,WeatherDisplay:10.37,2013-04-17 16:57:00,
2013-04-17 13:02:00,62.6,51.5,30.06,SE,135,6.9,6.9,67,0.00,OVC,,0.00,WeatherDisplay:10.37,2013-04-17 17:02:00,
2013-04-17 13:07:00,61.3,50.6,30.06,ESE,112,5.8,5.8,68,0.00,OVC,,0.00,WeatherDisplay:10.37,2013-04-17 17:07:00,
2013-04-17 13:12:00,62.4,51.7,30.06,SSE,158,4.6,4.6,68,0.00,OVC,,0.00,WeatherDisplay:10.37,2013-04-17 17:12:00,
2013-04-17 13:17:00,63.5,51.9,30.05,SSW,202,2.3,2.3,66,0.00,OVC,,0.00,WeatherDisplay:10.37,2013-04-17 17:17:00,
2013-04-17 13:22:00,61.9,51.6,30.05,SE,135,5.8,5.8,69,0.00,OVC,,0.00,WeatherDisplay:10.37,2013-04-17 17:22:00,
2013-04-17 13:27:00,60.8,51.0,30.05,NE,45,5.8,5.8,70,0.00,OVC,,0.00,WeatherDisplay:10.37,2013-04-17 17:27:00,
2013-04-17 13:32:00,63.0,52.3,30.05,ESE,112,4.6,4.6,68,0.00,OVC,,0.00,WeatherDisplay:10.37,2013-04-17 17:32:00,
2013-04-17 13:37:00,64.9,52.8,30.05,SSE,158,2.3,2.3,65,0.00,OVC,,0.00,WeatherDisplay:10.37,2013-04-17 17:37:00,
2013-04-17 13:42:00,66.0,53.0,30.05,ENE,68,4.6,4.6,63,0.00,OVC,,0.00,WeatherDisplay:10.37,2013-04-17 17:42:00,
2013-04-17 13:47:00,64.9,52.4,30.05,ESE,112,3.2,3.2,64,0.00,OVC,,0.00,WeatherDisplay:10.37,2013-04-17 17:47:00,
2013-04-17 13:52:00,64.8,52.8,30.04,South,180,3.5,3.5,65,0.00,OVC,,0.00,WeatherDisplay:10.37,2013-04-17 17:52:00,
2013-04-17 13:57:00,68.4,53.5,30.04,West,270,4.7,4.7,59,0.00,OVC,,0.00,WeatherDisplay:10.37,2013-04-17 17:57:00,
2013-04-17 14:02:00,70.7,53.7,30.04,ESE,112,2.3,2.6,55,0.00,OVC,,0.00,WeatherDisplay:10.37,2013-04-17 18:02:00,
2013-04-17 14:07:00,64.2,52.6,30.04,SE,135,4.6,4.6,66,0.00,OVC,,0.00,WeatherDisplay:10.37,2013-04-17 18:07:00,
2013-04-17 14:12:00,64.6,53.0,30.04,SSW,202,2.3,2.3,66,0.00,OVC,,0.00,WeatherDisplay:10.37,2013-04-17 18:12:00,
2013-04-17 14:17:00,67.1,53.6,30.05,ESE,112,4.2,4.2,62,0.00,OVC,,0.00,WeatherDisplay:10.37,2013-04-17 18:17:00,
2013-04-17 14:22:00,66.2,53.2,30.05,SE,135,3.5,3.5,63,0.00,OVC,,0.00,WeatherDisplay:10.37,2013-04-17 18:22:00,
2013-04-17 14:27:00,66.7,53.7,30.05,SW,225,3.7,3.7,63,0.00,OVC,,0.00,WeatherDisplay:10.37,2013-04-17 18:27:00,
2013-04-17 14:32:00,68.7,54.3,30.05,SW,225,2.3,2.3,60,0.00,OVC,,0.00,WeatherDisplay:10.37,2013-04-17 18:32:00,
2013-04-17 14:37:00,66.7,53.7,30.04,East,90,2.3,2.3,63,0.00,OVC,,0.00,WeatherDisplay:10.37,2013-04-17 18:37:00,
2013-04-17 14:42:00,67.1,53.6,30.04,East,90,2.3,2.3,62,0.00,OVC,,0.00,WeatherDisplay:10.37,2013-04-17 18:42:00,
2013-04-17 14:47:00,68.4,54.4,30.04,South,180,2.3,2.6,61,0.00,OVC,,0.00,WeatherDisplay:10.37,2013-04-17 18:47:00,
2013-04-17 14:52:00,69.1,54.6,30.03,SSE,158,1.7,1.8,60,0.00,OVC,,0.00,WeatherDisplay:10.37,2013-04-17 18:52:00,
2013-04-17 14:57:00,66.0,53.9,30.03,East,90,2.7,2.7,65,0.00,OVC,,0.00,WeatherDisplay:10.37,2013-04-17 18:57:00,
2013-04-17 15:02:00,67.6,54.6,30.03,SE,135,2.3,2.3,63,0.00,OVC,,0.00,WeatherDisplay:10.37,2013-04-17 19:02:00,
2013-04-17 15:07:00,70.9,55.9,30.03,WSW,248,4.2,4.2,59,0.00,OVC,,0.00,WeatherDisplay:10.37,2013-04-17 19:07:00,
2013-04-17 15:12:00,70.7,55.7,30.03,SSE,158,3.5,3.5,59,0.00,OVC,,0.00,WeatherDisplay:10.37,2013-04-17 19:12:00,
2013-04-17 15:17:00,68.0,54.9,30.03,SSE,158,4.2,4.2,63,0.00,OVC,,0.00,WeatherDisplay:10.37,2013-04-17 19:17:00,
2013-04-17 15:22:00,67.3,54.3,30.03,WSW,248,3.5,3.5,63,0.00,OVC,,0.00,WeatherDisplay:10.37,2013-04-17 19:22:00,
2013-04-17 15:27:00,69.4,54.9,30.03,WSW,248,5.8,5.8,60,0.00,OVC,,0.00,WeatherDisplay:10.37,2013-04-17 19:27:00,
2013-04-17 15:32:00,70.3,55.3,30.03,WSW,248,4.7,4.7,59,0.00,OVC,,0.00,WeatherDisplay:10.37,2013-04-17 19:32:00,
2013-04-17 15:37:00,68.4,55.3,30.03,WSW,248,5.8,5.8,63,0.00,OVC,,0.00,WeatherDisplay:10.37,2013-04-17 19:37:00,
2013-04-17 15:42:00,70.3,55.8,30.03,West,270,3.7,3.7,60,0.00,OVC,,0.00,WeatherDisplay:10.37,2013-04-17 19:42:00,
2013-04-17 15:47:00,70.7,55.7,30.03,ESE,112,3.5,3.5,59,0.00,OVC,,0.00,WeatherDisplay:10.37,2013-04-17 19:47:00,
2013-04-17 15:52:00,72.7,55.6,30.02,SSW,202,5.8,5.8,55,0.00,OVC,,0.00,WeatherDisplay:10.37,2013-04-17 19:52:00,
2013-04-17 15:57:00,70.7,55.7,30.02,SE,135,5.3,5.3,59,0.00,OVC,,0.00,WeatherDisplay:10.37,2013-04-17 19:57:00,
2013-04-17 16:02:00,70.5,55.9,30.02,SSW,202,3.7,3.7,60,0.00,SCT,,0.00,WeatherDisplay:10.37,2013-04-17 20:02:00,
2013-04-17 16:07:00,70.7,55.7,30.02,South,180,4.6,4.6,59,0.00,SCT,,0.00,WeatherDisplay:10.37,2013-04-17 20:07:00,
2013-04-17 16:12:00,69.4,55.4,30.01,ENE,68,4.6,4.6,61,0.00,SCT,,0.00,WeatherDisplay:10.37,2013-04-17 20:12:00,
2013-04-17 16:17:00,72.1,56.0,30.01,South,180,4.6,4.6,57,0.00,SCT,,0.00,WeatherDisplay:10.37,2013-04-17 20:17:00,
2013-04-17 16:22:00,71.8,57.6,30.01,SW,225,4.6,4.6,61,0.00,SCT,,0.00,WeatherDisplay:10.37,2013-04-17 20:22:00,
2013-04-17 16:27:00,73.2,56.6,30.01,SW,225,6.9,6.9,56,0.00,SCT,,0.00,WeatherDisplay:10.37,2013-04-17 20:27:00,
2013-04-17 16:32:00,70.9,55.9,30.01,South,180,5.8,5.8,59,0.00,SCT,,0.00,WeatherDisplay:10.37,2013-04-17 20:32:00,
2013-04-17 16:37:00,72.1,57.0,30.01,SSE,158,4.6,4.6,59,0.00,SCT,,0.00,WeatherDisplay:10.37,2013-04-17 20:37:00,
2013-04-17 16:42:00,71.6,57.0,30.01,SW,225,3.5,3.5,60,0.00,SCT,,0.00,WeatherDisplay:10.37,2013-04-17 20:42:00,
2013-04-17 16:47:00,70.9,57.2,30.01,SE,135,1.7,1.7,62,0.00,SCT,,0.00,WeatherDisplay:10.37,2013-04-17 20:47:00,
2013-04-17 16:52:00,68.0,55.8,30.01,SE,135,3.7,3.7,65,0.00,SCT,,0.00,WeatherDisplay:10.37,2013-04-17 20:52:00,
2013-04-17 16:57:00,72.1,57.0,30.01,ESE,112,4.6,4.6,59,0.00,SCT,,0.00,WeatherDisplay:10.37,2013-04-17 20:57:00,
2013-04-17 17:02:00,71.2,56.6,30.01,WSW,248,3.2,3.2,60,0.00,BKN,,0.00,WeatherDisplay:10.37,2013-04-17 21:02:00,
2013-04-17 17:07:00,72.7,57.1,30.01,SW,225,5.8,5.8,58,0.00,BKN,,0.00,WeatherDisplay:10.37,2013-04-17 21:07:00,
2013-04-17 17:12:00,72.0,56.9,30.01,SSW,202,5.8,5.8,59,0.00,BKN,,0.00,WeatherDisplay:10.37,2013-04-17 21:12:00,
2013-04-17 17:17:00,71.2,56.1,30.01,South,180,5.3,5.3,59,0.00,BKN,,0.00,WeatherDisplay:10.37,2013-04-17 21:17:00,
2013-04-17 17:22:00,73.6,57.4,30.01,SW,225,4.7,4.7,57,0.00,BKN,,0.00,WeatherDisplay:10.37,2013-04-17 21:22:00,
2013-04-17 17:27:00,70.3,55.8,30.00,SSE,158,4.6,4.6,60,0.00,BKN,,0.00,WeatherDisplay:10.37,2013-04-17 21:27:00,
2013-04-17 17:32:00,69.6,55.6,30.00,SSE,158,5.8,5.8,61,0.00,BKN,,0.00,WeatherDisplay:10.37,2013-04-17 21:32:00,
2013-04-17 17:37:00,70.2,56.6,30.00,West,270,4.6,4.6,62,0.00,BKN,,0.00,WeatherDisplay:10.37,2013-04-17 21:37:00,
2013-04-17 17:42:00,72.3,56.2,30.00,SE,135,2.3,2.3,57,0.00,BKN,,0.00,WeatherDisplay:10.37,2013-04-17 21:42:00,
2013-04-17 17:47:00,67.8,54.7,30.00,ESE,112,2.3,2.5,63,0.00,BKN,,0.00,WeatherDisplay:10.37,2013-04-17 21:47:00,
2013-04-17 17:52:00,72.1,57.0,29.99,ESE,112,4.7,4.7,59,0.00,BKN,,0.00,WeatherDisplay:10.37,2013-04-17 21:52:00,
2013-04-17 17:57:00,70.7,56.6,29.99,SSW,202,2.3,2.3,61,0.00,BKN,,0.00,WeatherDisplay:10.37,2013-04-17 21:57:00,
2013-04-17 18:02:00,69.3,56.2,29.99,SSE,158,1.7,1.7,63,0.00,BKN,,0.00,WeatherDisplay:10.37,2013-04-17 22:02:00,
2013-04-17 18:07:00,68.9,56.2,29.99,ENE,68,4.6,4.6,64,0.00,BKN,,0.00,WeatherDisplay:10.37,2013-04-17 22:07:00,
2013-04-17 18:12:00,72.3,57.2,29.99,South,180,4.6,4.6,59,0.00,BKN,,0.00,WeatherDisplay:10.37,2013-04-17 22:12:00,
2013-04-17 18:17:00,69.6,56.9,29.99,West,270,1.7,1.8,64,0.00,BKN,,0.00,WeatherDisplay:10.37,2013-04-17 22:17:00,
2013-04-17 18:22:00,74.3,58.1,29.99,SW,225,4.6,4.6,57,0.00,BKN,,0.00,WeatherDisplay:10.37,2013-04-17 22:22:00,
2013-04-17 18:27:00,76.6,57.7,29.99,West,270,2.3,2.9,52,0.00,BKN,,0.00,WeatherDisplay:10.37,2013-04-17 22:27:00,
2013-04-17 18:32:00,74.1,57.9,29.99,ESE,112,2.3,2.3,57,0.00,BKN,,0.00,WeatherDisplay:10.37,2013-04-17 22:32:00,
2013-04-17 18:37:00,75.2,57.9,29.98,WSW,248,3.5,3.5,55,0.00,BKN,,0.00,WeatherDisplay:10.37,2013-04-17 22:37:00,
2013-04-17 18:42:00,72.7,57.5,29.98,ESE,112,2.3,0.0,59,0.00,BKN,,0.00,WeatherDisplay:10.37,2013-04-17 22:42:00,
2013-04-17 18:47:00,74.3,58.1,29.98,SW,225,2.3,2.4,57,0.00,BKN,,0.00,WeatherDisplay:10.37,2013-04-17 22:47:00,
2013-04-17 18:52:00,74.8,58.1,29.98,WSW,248,2.3,2.5,56,0.00,BKN,,0.00,WeatherDisplay:10.37,2013-04-17 22:52:00,
2013-04-17 18:57:00,74.3,57.6,29.98,SW,225,3.5,3.5,56,0.00,BKN,,0.00,WeatherDisplay:10.37,2013-04-17 22:57:00,
2013-04-17 19:02:00,73.9,58.2,29.98,SE,135,2.3,2.3,58,0.00,CLR,,0.00,WeatherDisplay:10.37,2013-04-17 23:02:00,
2013-04-17 19:07:00,71.8,57.6,29.98,North,360,2.3,2.3,61,0.00,CLR,,0.00,WeatherDisplay:10.37,2013-04-17 23:07:00,
2013-04-17 19:12:00,71.6,57.4,29.98,SSE,158,3.5,3.5,61,0.00,CLR,,0.00,WeatherDisplay:10.37,2013-04-17 23:12:00,
2013-04-17 19:17:00,71.1,57.9,29.98,South,180,2.3,2.3,63,0.00,CLR,,0.00,WeatherDisplay:10.37,2013-04-17 23:17:00,
2013-04-17 19:22:00,70.5,57.3,29.98,South,180,2.3,2.5,63,0.00,CLR,,0.00,WeatherDisplay:10.37,2013-04-17 23:22:00,
2013-04-17 19:27:00,70.7,57.5,29.98,SE,135,2.7,2.7,63,0.00,CLR,,0.00,WeatherDisplay:10.37,2013-04-17 23:27:00,
2013-04-17 19:32:00,71.1,57.9,29.98,SSE,158,0.0,0.0,63,0.00,CLR,,0.00,WeatherDisplay:10.37,2013-04-17 23:32:00,
2013-04-17 19:37:00,70.3,57.1,29.98,South,180,0.0,0.0,63,0.00,CLR,,0.00,WeatherDisplay:10.37,2013-04-17 23:37:00,
2013-04-17 19:42:00,69.6,57.3,29.98,SSE,158,0.0,0.0,65,0.00,CLR,,0.00,WeatherDisplay:10.37,2013-04-17 23:42:00,
2013-04-17 19:47:00,68.7,56.9,29.98,SSW,202,0.0,0.0,66,0.00,CLR,,0.00,WeatherDisplay:10.37,2013-04-17 23:47:00,
2013-04-17 19:52:00,68.4,57.0,29.98,South,180,0.0,0.0,67,0.00,CLR,,0.00,WeatherDisplay:10.37,2013-04-17 23:52:00,
2013-04-17 19:57:00,67.6,56.7,29.98,SE,135,0.0,0.0,68,0.00,CLR,,0.00,WeatherDisplay:10.37,2013-04-17 23:57:00,
2013-04-17 20:02:00,67.3,56.4,29.97,SSW,202,0.0,0.0,68,0.00,CLR,,0.00,WeatherDisplay:10.37,2013-04-18 00:02:00,
2013-04-17 20:07:00,66.4,56.3,29.97,ESE,112,0.0,0.0,70,0.00,CLR,,0.00,WeatherDisplay:10.37,2013-04-18 00:07:00,
2013-04-17 20:12:00,65.1,56.2,29.97,ENE,68,0.0,0.0,73,0.00,CLR,,0.00,WeatherDisplay:10.37,2013-04-18 00:12:00,
2013-04-17 20:17:00,64.6,56.1,29.97,ESE,112,1.1,1.3,74,0.00,CLR,,0.00,WeatherDisplay:10.37,2013-04-18 00:17:00,
2013-04-17 20:22:00,64.4,55.9,29.97,ESE,112,0.0,0.0,74,0.00,CLR,,0.00,WeatherDisplay:10.37,2013-04-18 00:22:00,
2013-04-17 20:27:00,64.2,56.1,29.97,South,180,0.0,0.0,75,0.00,CLR,,0.00,WeatherDisplay:10.37,2013-04-18 00:27:00,
2013-04-17 20:32:00,64.0,55.9,29.97,SSW,202,0.0,0.0,75,0.00,CLR,,0.00,WeatherDisplay:10.37,2013-04-18 00:32:00,
2013-04-17 20:37:00,63.7,56.0,29.97,WSW,248,0.0,0.0,76,0.00,CLR,,0.00,WeatherDisplay:10.37,2013-04-18 00:37:00,
2013-04-17 20:42:00,62.8,56.2,29.97,WSW,248,0.0,0.0,79,0.00,CLR,,0.00,WeatherDisplay:10.37,2013-04-18 00:42:00,
2013-04-17 20:47:00,62.4,55.8,29.97,West,270,0.0,0.0,79,0.00,CLR,,0.00,WeatherDisplay:10.37,2013-04-18 00:47:00,
2013-04-17 20:53:00,62.4,55.8,29.98,SE,135,0.0,0.0,79,0.00,CLR,,0.00,WeatherDisplay:10.37,2013-04-18 00:53:00,
2013-04-17 20:58:00,62.2,55.6,29.98,ESE,112,1.7,1.7,79,0.00,CLR,,0.00,WeatherDisplay:10.37,2013-04-18 00:58:00,
2013-04-17 21:03:00,62.2,55.6,29.98,SE,135,2.3,2.3,79,0.00,CLR,,0.00,WeatherDisplay:10.37,2013-04-18 01:03:00,
2013-04-17 21:08:00,61.9,55.7,29.98,SSE,158,0.0,0.0,80,0.00,CLR,,0.00,WeatherDisplay:10.37,2013-04-18 01:08:00,
2013-04-17 21:13:00,61.7,55.5,29.98,SSE,158,2.3,2.3,80,0.00,CLR,,0.00,WeatherDisplay:10.37,2013-04-18 01:13:00,
2013-04-17 21:18:00,61.7,55.8,29.98,ESE,112,2.7,2.7,81,0.00,CLR,,0.00,WeatherDisplay:10.37,2013-04-18 01:18:00,
2013-04-17 21:23:00,61.7,55.8,29.98,ESE,112,3.2,3.2,81,0.00,CLR,,0.00,WeatherDisplay:10.37,2013-04-18 01:23:00,
2013-04-17 21:28:00,61.9,56.0,29.98,ESE,112,3.5,3.5,81,0.00,CLR,,0.00,WeatherDisplay:10.37,2013-04-18 01:28:00,
2013-04-17 21:33:00,61.9,56.0,29.98,NE,45,2.3,2.3,81,0.00,CLR,,0.00,WeatherDisplay:10.37,2013-04-18 01:33:00,
2013-04-17 21:38:00,61.9,55.7,29.99,ESE,112,0.0,0.0,80,0.00,CLR,,0.00,WeatherDisplay:10.37,2013-04-18 01:38:00,
2013-04-17 21:43:00,61.9,55.7,29.99,ESE,112,2.3,2.3,80,0.00,CLR,,0.00,WeatherDisplay:10.37,2013-04-18 01:43:00,
2013-04-17 21:48:00,61.7,55.8,29.99,ESE,112,2.2,2.2,81,0.00,CLR,,0.00,WeatherDisplay:10.37,2013-04-18 01:48:00,
2013-04-17 21:53:00,61.5,55.6,30.00,ESE,112,2.7,2.7,81,0.00,CLR,,0.00,WeatherDisplay:10.37,2013-04-18 01:53:00,
2013-04-17 21:58:00,61.5,55.6,30.00,ESE,112,2.3,2.3,81,0.00,CLR,,0.00,WeatherDisplay:10.37,2013-04-18 01:58:00,
2013-04-17 22:03:00,61.5,56.0,30.00,ESE,112,2.3,2.3,82,0.00,CLR,,0.00,WeatherDisplay:10.37,2013-04-18 02:03:00,
2013-04-17 22:08:00,61.5,56.0,30.00,ESE,112,3.2,3.2,82,0.00,CLR,,0.00,WeatherDisplay:10.37,2013-04-18 02:08:00,
2013-04-17 22:13:00,61.5,56.0,29.99,ESE,112,3.7,3.7,82,0.00,CLR,,0.00,WeatherDisplay:10.37,2013-04-18 02:13:00,
2013-04-17 22:18:00,61.0,55.5,29.99,ESE,112,2.3,2.3,82,0.00,CLR,,0.00,WeatherDisplay:10.37,2013-04-18 02:18:00,
2013-04-17 22:23:00,60.8,55.6,29.99,ESE,112,3.7,3.7,83,0.00,CLR,,0.00,WeatherDisplay:10.37,2013-04-18 02:23:00,
2013-04-17 22:28:00,60.4,55.5,29.98,ESE,112,4.6,4.6,84,0.00,CLR,,0.00,WeatherDisplay:10.37,2013-04-18 02:28:00,
2013-04-17 22:33:00,60.6,55.7,29.98,ESE,112,6.3,6.3,84,0.00,CLR,,0.00,WeatherDisplay:10.37,2013-04-18 02:33:00,
2013-04-17 22:38:00,60.4,55.5,29.97,ESE,112,7.3,7.3,84,0.00,CLR,,0.00,WeatherDisplay:10.37,2013-04-18 02:38:00,
2013-04-17 22:43:00,60.6,55.7,29.97,ESE,112,5.8,5.8,84,0.00,CLR,,0.00,WeatherDisplay:10.37,2013-04-18 02:43:00,
2013-04-17 22:48:00,60.6,55.7,29.97,ESE,112,5.8,5.8,84,0.00,CLR,,0.00,WeatherDisplay:10.37,2013-04-18 02:48:00,
2013-04-17 22:53:00,60.6,55.7,29.96,South,180,9.2,9.2,84,0.00,CLR,,0.00,WeatherDisplay:10.37,2013-04-18 02:53:00,
2013-04-17 22:58:00,60.8,55.6,29.96,ESE,112,7.3,7.3,83,0.00,CLR,,0.00,WeatherDisplay:10.37,2013-04-18 02:58:00,
2013-04-17 23:03:00,60.8,55.6,29.94,East,90,9.2,9.2,83,0.00,CLR,,0.00,WeatherDisplay:10.37,2013-04-18 03:03:00,
2013-04-17 23:08:00,61.0,55.8,29.94,SSE,158,9.9,9.9,83,0.00,CLR,,0.00,WeatherDisplay:10.37,2013-04-18 03:08:00,
2013-04-17 23:13:00,61.2,56.0,29.94,SE,135,9.2,9.2,83,0.00,CLR,,0.00,WeatherDisplay:10.37,2013-04-18 03:13:00,
2013-04-17 23:18:00,61.2,56.0,29.94,SE,135,9.2,9.2,83,0.00,CLR,,0.00,WeatherDisplay:10.37,2013-04-18 03:18:00,
2013-04-17 23:23:00,61.3,55.8,29.94,SE,135,9.4,9.4,82,0.00,CLR,,0.00,WeatherDisplay:10.37,2013-04-18 03:23:00,
2013-04-17 23:28:00,61.7,56.1,29.93,SSE,158,10.4,10.4,82,0.00,CLR,,0.00,WeatherDisplay:10.37,2013-04-18 03:28:00,
2013-04-17 23:33:00,61.7,56.1,29.93,ESE,112,8.1,8.1,82,0.00,CLR,,0.00,WeatherDisplay:10.37,2013-04-18 03:33:00,
2013-04-17 23:38:00,61.7,56.1,29.94,ESE,112,6.9,6.9,82,0.00,CLR,,0.00,WeatherDisplay:10.37,2013-04-18 03:38:00,
2013-04-17 23:43:00,61.7,56.1,29.94,ESE,112,8.1,8.1,82,0.00,CLR,,0.00,WeatherDisplay:10.37,2013-04-18 03:43:00,
2013-04-17 23:48:00,61.7,56.1,29.94,SE,135,8.1,8.1,82,0.00,CLR,,0.00,WeatherDisplay:10.37,2013-04-18 03:48:00,
2013-04-17 23:53:00,61.7,56.1,29.94,SE,135,9.2,9.2,82,0.00,CLR,,0.00,WeatherDisplay:10.37,2013-04-18 03:53:00,
2013-04-17 23:58:00,61.7,56.1,29.94,SE,135,6.9,6.9,82,0.00,CLR,,0.00,WeatherDisplay:10.37,2013-04-18 03:58:00,